When you browse on this site, cookies collect data to enhance your experience and personalize the content and advertising you see.
Visit our Privacy Policy to learn more. By continuing to use the site, you agree to this use of cookies and data.
  • In Hungary
  • List of Countries
  • For 7 days
  • Water Temperature
  • Satellite Maps
  • Weather Map
  • News
  • Weather Widgets
  • user-avatar
    Login

    Hourly Weather Jesionka

    Today, 20 May, Monday

    Time Temperature Precipitation Wind Pressure Humidity
    00:00 +14°C° 0 mm 2 mps 732 mmHg 89%
    01:00 +14°C° 0 mm 2 mps 732 mmHg 90%
    02:00 +14°C° 0 mm 2 mps 731 mmHg 90%
    03:00 +14°C° 0 mm 1 mps 731 mmHg 90%
    04:00 +14°C° 0 mm 1 mps 731 mmHg 90%
    05:00 +15°C° 0 mm 2 mps 731 mmHg 86%
    06:00 +17°C° 0 mm 2 mps 731 mmHg 82%
    07:00 +19°C° 0 mm 2 mps 731 mmHg 75%
    08:00 +20°C° 0 mm 3 mps 731 mmHg 68%
    09:00 +22°C° 0 mm 3 mps 732 mmHg 61%
    10:00 +23°C° 0 mm 4 mps 732 mmHg 54%
    11:00 +25°C° 0 mm 4 mps 732 mmHg 51%
    12:00 +25°C° 0 mm 3 mps 732 mmHg 49%
    13:00 +25°C° 0 mm 3 mps 732 mmHg 46%
    14:00 +25°C° 0 mm 3 mps 732 mmHg 47%
    15:00 +25°C° 0 mm 2 mps 732 mmHg 47%
    16:00 +25°C° 0 mm 2 mps 732 mmHg 48%
    17:00 +23°C° 0 mm 2 mps 732 mmHg 55%
    18:00 +21°C° 0 mm 1 mps 732 mmHg 62%
    19:00 +19°C° 0 mm 1 mps 731 mmHg 68%
    20:00 +18°C° 0 mm 1 mps 732 mmHg 70%
    21:00 +16°C° 0 mm 2 mps 732 mmHg 72%
    22:00 +15°C° 0 mm 2 mps 732 mmHg 74%
    23:00 +15°C° 0 mm 2 mps 732 mmHg 75%

    Tomorrow, 21 May, Tuesday

    Time Temperature Precipitation Wind Pressure Humidity
    00:00 +14°C° 0 mm 2 mps 732 mmHg 77%
    01:00 +14°C° 0 mm 1 mps 732 mmHg 79%
    02:00 +14°C° 0 mm 1 mps 732 mmHg 79%
    03:00 +13°C° 0 mm 1 mps 732 mmHg 79%
    04:00 +13°C° 0 mm 1 mps 732 mmHg 80%
    05:00 +15°C° 0 mm 1 mps 732 mmHg 76%
    06:00 +16°C° 0 mm 1 mps 732 mmHg 72%
    07:00 +18°C° 0 mm 1 mps 732 mmHg 69%
    08:00 +18°C° 0 mm 0 mps 732 mmHg 64%
    09:00 +19°C° 0 mm 0 mps 732 mmHg 59%
    10:00 +20°C° 0 mm 0 mps 732 mmHg 54%
    11:00 +22°C° 0 mm 1 mps 732 mmHg 54%
    12:00 +21°C° 0 mm 2 mps 732 mmHg 53%
    13:00 +22°C° 0 mm 3 mps 732 mmHg 53%
    14:00 +21°C° 0.1 mm 3 mps 731 mmHg 59%
    15:00 +20°C° 0.1 mm 4 mps 731 mmHg 66%
    16:00 +19°C° 0.1 mm 4 mps 731 mmHg 72%
    17:00 +18°C° 0.1 mm 4 mps 731 mmHg 75%
    18:00 +17°C° 0.1 mm 4 mps 731 mmHg 77%
    19:00 +17°C° 0.1 mm 4 mps 731 mmHg 79%
    20:00 +15°C° 0.2 mm 4 mps 732 mmHg 81%
    21:00 +14°C° 0.2 mm 4 mps 732 mmHg 82%
    22:00 +14°C° 0.2 mm 3 mps 732 mmHg 83%
    23:00 +14°C° 0.5 mm 4 mps 732 mmHg 84%

    Day after tomorrow, 22 May, Wednesday

    Time Temperature Precipitation Wind Pressure Humidity
    00:00 +14°C° 0.5 mm 4 mps 732 mmHg 85%
    01:00 +14°C° 0.5 mm 4 mps 732 mmHg 86%
    02:00 +13°C° 2.1 mm 4 mps 732 mmHg 88%
    03:00 +13°C° 2.1 mm 4 mps 732 mmHg 91%
    04:00 +13°C° 2.1 mm 4 mps 732 mmHg 93%
    05:00 +13°C° 3.5 mm 5 mps 732 mmHg 93%
    06:00 +13°C° 3.5 mm 5 mps 732 mmHg 93%
    07:00 +13°C° 3.5 mm 6 mps 733 mmHg 93%
    08:00 +13°C° 1.4 mm 6 mps 733 mmHg 92%
    09:00 +13°C° 1.4 mm 6 mps 733 mmHg 92%
    10:00 +13°C° 1.4 mm 6 mps 734 mmHg 92%
    11:00 +13°C° 0.7 mm 6 mps 734 mmHg 92%
    12:00 +14°C° 0.7 mm 5 mps 734 mmHg 92%
    13:00 +14°C° 0.7 mm 5 mps 734 mmHg 93%
    14:00 +14°C° 0.6 mm 5 mps 734 mmHg 93%
    15:00 +14°C° 0.6 mm 5 mps 734 mmHg 93%
    16:00 +14°C° 0.6 mm 5 mps 734 mmHg 94%
    17:00 +13°C° 0.3 mm 5 mps 735 mmHg 94%
    18:00 +13°C° 0.3 mm 5 mps 735 mmHg 94%
    19:00 +13°C° 0.3 mm 5 mps 735 mmHg 94%
    20:00 +13°C° 0.4 mm 5 mps 736 mmHg 94%
    21:00 +12°C° 0.4 mm 5 mps 736 mmHg 94%
    22:00 +12°C° 0.4 mm 5 mps 736 mmHg 94%
    23:00 +12°C° 0.3 mm 5 mps 737 mmHg 94%

    23 May, Thursday

    Time Temperature Precipitation Wind Pressure Humidity
    00:00 +12°C° 0.3 mm 5 mps 737 mmHg 94%
    01:00 +12°C° 0.3 mm 5 mps 737 mmHg 94%
    02:00 +12°C° 0.3 mm 5 mps 737 mmHg 94%
    03:00 +11°C° 0.3 mm 6 mps 737 mmHg 94%
    04:00 +11°C° 0.3 mm 6 mps 737 mmHg 94%
    05:00 +10°C° 0.4 mm 6 mps 738 mmHg 93%
    06:00 +10°C° 0.4 mm 6 mps 738 mmHg 93%
    07:00 +10°C° 0.4 mm 6 mps 738 mmHg 93%
    08:00 +9°C° 1 mm 6 mps 739 mmHg 92%
    09:00 +9°C° 1 mm 6 mps 739 mmHg 92%
    10:00 +9°C° 1 mm 6 mps 740 mmHg 92%
    11:00 +9°C° 0.2 mm 6 mps 740 mmHg 89%
    12:00 +9°C° 0.2 mm 6 mps 740 mmHg 86%
    13:00 +9°C° 0.2 mm 6 mps 740 mmHg 83%
    14:00 +10°C° 0 mm 5 mps 740 mmHg 81%
    15:00 +11°C° 0 mm 4 mps 740 mmHg 78%
    16:00 +11°C° 0 mm 3 mps 740 mmHg 75%
    17:00 +12°C° 0 mm 2 mps 740 mmHg 77%
    18:00 +12°C° 0 mm 2 mps 740 mmHg 78%
    19:00 +12°C° 0 mm 1 mps 740 mmHg 79%
    20:00 +11°C° 0 mm 1 mps 740 mmHg 82%
    21:00 +10°C° 0 mm 1 mps 740 mmHg 84%
    22:00 +8°C° 0 mm 2 mps 741 mmHg 87%
    23:00 +8°C° 0 mm 2 mps 740 mmHg 88%

    24 May, Friday

    Time Temperature Precipitation Wind Pressure Humidity
    00:00 +8°C° 0 mm 2 mps 740 mmHg 89%
    01:00 +7°C° 0 mm 2 mps 740 mmHg 90%
    02:00 +7°C° 0 mm 2 mps 740 mmHg 91%
    03:00 +6°C° 0 mm 2 mps 740 mmHg 91%
    04:00 +6°C° 0 mm 2 mps 740 mmHg 92%
    05:00 +8°C° 0 mm 2 mps 740 mmHg 85%
    06:00 +10°C° 0 mm 2 mps 739 mmHg 79%
    07:00 +13°C° 0 mm 2 mps 739 mmHg 73%
    08:00 +14°C° 0 mm 2 mps 739 mmHg 67%
    09:00 +15°C° 0 mm 2 mps 739 mmHg 60%
    10:00 +17°C° 0 mm 3 mps 739 mmHg 54%
    11:00 +17°C° 0 mm 2 mps 738 mmHg 51%
    12:00 +18°C° 0 mm 2 mps 738 mmHg 49%
    13:00 +19°C° 0 mm 2 mps 737 mmHg 46%
    14:00 +19°C° 0 mm 2 mps 737 mmHg 46%
    15:00 +19°C° 0 mm 2 mps 736 mmHg 46%
    16:00 +20°C° 0 mm 1 mps 736 mmHg 46%
    17:00 +18°C° 0 mm 1 mps 736 mmHg 53%
    18:00 +16°C° 0 mm 1 mps 735 mmHg 59%
    19:00 +14°C° 0 mm 1 mps 735 mmHg 65%
    20:00 +13°C° 0 mm 1 mps 735 mmHg 69%
    21:00 +12°C° 0 mm 1 mps 735 mmHg 72%
    22:00 +11°C° 0 mm 1 mps 735 mmHg 75%
    23:00 +10°C° 0 mm 1 mps 735 mmHg 77%

    25 May, Saturday

    Time Temperature Precipitation Wind Pressure Humidity
    00:00 +10°C° 0 mm 1 mps 735 mmHg 78%
    01:00 +9°C° 0 mm 1 mps 734 mmHg 80%
    02:00 +9°C° 0 mm 1 mps 734 mmHg 81%
    03:00 +9°C° 0 mm 1 mps 734 mmHg 81%
    04:00 +9°C° 0 mm 1 mps 734 mmHg 82%
    05:00 +11°C° 0 mm 1 mps 734 mmHg 76%
    06:00 +13°C° 0 mm 1 mps 734 mmHg 70%
    07:00 +15°C° 0 mm 1 mps 734 mmHg 64%
    08:00 +18°C° 0 mm 1 mps 734 mmHg 60%
    09:00 +20°C° 0 mm 1 mps 734 mmHg 56%
    10:00 +22°C° 0 mm 1 mps 734 mmHg 52%
    11:00 +22°C° 0.1 mm 1 mps 734 mmHg 53%
    12:00 +23°C° 0.1 mm 2 mps 734 mmHg 54%
    13:00 +23°C° 0.1 mm 2 mps 734 mmHg 55%
    14:00 +23°C° 1.1 mm 2 mps 734 mmHg 60%
    15:00 +21°C° 1.1 mm 2 mps 734 mmHg 66%
    16:00 +21°C° 1.1 mm 2 mps 734 mmHg 71%
    17:00 +19°C° 1.4 mm 2 mps 734 mmHg 77%
    18:00 +18°C° 1.4 mm 2 mps 734 mmHg 82%
    19:00 +17°C° 1.4 mm 2 mps 734 mmHg 87%
    20:00 +16°C° 0.5 mm 2 mps 734 mmHg 89%
    21:00 +15°C° 0.5 mm 2 mps 735 mmHg 91%
    22:00 +14°C° 0.5 mm 2 mps 735 mmHg 93%
    23:00 +13°C° 0 mm 2 mps 735 mmHg 94%
    Show more